PST,Max TemperatureF,Mean TemperatureF,Min TemperatureF,Max Dew PointF,MeanDew PointF,Min DewpointF,Max Humidity, Mean Humidity, Min Humidity, Max Sea Level PressureIn, Mean Sea Level PressureIn, Min Sea Level PressureIn, Max VisibilityMiles, Mean VisibilityMiles, Min VisibilityMiles, Max Wind SpeedMPH, Mean Wind SpeedMPH, Max Gust SpeedMPH,PrecipitationIn, CloudCover, Events, WindDirDegrees
2010-11-1,60,58,55,57,55,54,100,90,77,30.29,30.16,30.09,10,5,1,37,27,53,0.87,8,Rain,203
2010-11-2,66,58,51,59,55,52,100,89,73,30.51,30.44,30.29,10,7,0,17,6,23,0.04,3,Fog-Rain,88
2010-11-3,62,56,50,54,51,46,100,83,59,30.17,30.14,30.10,10,6,0,25,13,36,0.00,3,Fog-Rain,185
2010-11-4,55,50,44,55,51,45,100,98,93,30.16,30.10,30.02,10,2,0,7,1,,0.00,8,Fog,138
2010-11-5,55,53,51,54,52,50,100,96,88,29.94,29.92,29.88,10,5,0,12,2,16,0.00,8,Fog,65
2010-11-6,57,54,51,54,52,52,100,94,88,29.91,29.84,29.73,10,6,2,28,9,36,0.47,8,Rain,201
2010-11-7,57,50,44,50,47,43,100,87,71,30.06,29.94,29.80,10,7,2,12,5,25,0.12,5,Rain,221
2010-11-8,51,46,41,46,43,39,100,89,71,30.20,30.14,30.10,10,9,1,14,4,21,0.61,5,Rain,196
2010-11-9,53,48,44,50,45,43,94,87,82,30.08,29.86,29.75,10,8,2,25,11,39,0.27,8,Rain,189
2010-11-10,55,47,39,50,45,39,100,92,77,30.32,30.21,29.95,10,5,1,7,2,,0.07,4,Rain,32
2010-11-11,53,46,39,50,45,39,100,91,76,30.52,30.38,30.29,10,8,1,23,7,31,0.39,4,Rain,150
2010-11-12,55,48,41,46,43,39,100,86,58,30.71,30.67,30.57,10,9,4,9,3,,0.00,0,,72
2010-11-13,51,48,44,52,46,41,100,94,87,30.67,30.52,30.44,10,6,2,7,2,,0.25,8,Rain,148
2010-11-14,55,53,51,54,53,52,100,98,94,30.44,30.42,30.41,2,1,0,13,7,,0.11,8,Fog-Rain,248
2010-11-15,55,53,51,55,53,52,100,98,94,30.42,30.34,30.21,7,3,0,17,8,24,0.14,8,Fog-Rain,224
2010-11-16,55,50,46,48,46,45,93,84,72,30.34,30.28,30.20,10,7,2,16,9,25,0.01,8,Rain,323
2010-11-17,51,48,44,50,46,39,100,89,81,30.12,29.96,29.80,10,6,1,34,14,46,0.51,8,Rain,198
2010-11-18,51,46,42,45,40,36,93,78,62,30.03,29.96,29.86,10,8,4,21,12,29,0.36,6,Rain,238
2010-11-19,48,44,41,45,40,37,93,87,71,29.95,29.81,29.74,10,8,2,23,10,28,0.80,7,Rain,186
2010-11-20,46,40,35,41,37,36,100,90,76,29.68,29.64,29.60,10,10,7,9,6,,0.05,4,Rain,95
2010-11-21,42,36,30,39,35,30,100,94,76,29.81,29.76,29.71,10,8,4,21,5,32,0.24,4,Rain,120
2010-11-22,46,42,37,43,38,30,93,79,61,29.94,29.88,29.74,10,8,3,29,15,45,0.19,8,Rain,294
2010-11-23,37,34,30,30,24,19,93,68,48,30.18,30.12,30.08,10,10,4,25,13,32,0.00,7,Snow,356
2010-11-24,39,34,28,34,29,27,93,88,75,30.34,30.29,30.23,10,10,3,10,8,,0.00,7,,97
2010-11-25,48,42,35,37,35,32,93,83,58,30.38,30.29,30.17,10,10,10,12,7,,0.00,5,,109
2010-11-26,48,46,44,46,45,41,100,92,81,30.11,29.99,29.87,10,6,1,31,19,39,0.68,8,Rain,199
2010-11-27,48,42,37,43,40,37,100,92,76,29.94,29.84,29.80,10,9,2,13,4,16,0.20,6,Rain,128
2010-11-28,46,40,35,43,39,36,100,94,87,30.29,30.16,30.01,10,9,2,8,4,,0.45,5,Rain,157
2010-11-29,46,42,37,39,37,36,100,84,71,30.35,30.31,30.24,10,10,10,16,8,23,0.03,6,Rain,131
2010-11-30,51,48,44,48,46,43,100,91,82,30.21,30.09,30.02,10,6,1,34,20,50,0.49,8,Rain,198